Vorticity
5 5 5 6 6 6 6 7 7 7 7 8 8 8 8 8 8 8 8 8 8 8 8 9 9 9 10 10 10 11 11 11 11 11 11 11 10 10 10 9 9 9 8 8 8 8 7 7 7 7 7 7 7 7 7 7 7 7 7 7 7 7 7 7 7 6 6 6 6 6 5 5 5 4 4 4 3 3 3 3 3 2 2 2 2 2 2 3 3 4 5 5 6 6 7 7 6 6 6 8 10 12 15
5 5 6 6 6 7 7 7 7 7 8 8 8 8 9 9 9 10 10 11 11 11 12 12 13 13 13 13 13 13 13 13 13 13 13 13 13 12 12 12 12 11 11 11 10 10 10 9 9 9 9 9 9 9 9 9 9 9 9 9 9 9 9 9 9 9 9 9 9 8 8 8 7 7 7 6 6 5 5 5 4 4 3 3 3 3 3 3 3 3 3 4 4 5 5 6 6 6 6 6 7 8 10
5 5 6 6 7 7 7 8 8 8 9 9 9 10 10 11 11 11 12 12 12 12 13 12 12 12 12 12 11 11 11 11 11 11 11 11 11 12 12 12 12 12 12 12 12 12 12 11 11 11 11 11 11 11 11 10 10 10 10 10 11 11 10 10 10 10 9 9 9 9 9 9 9 9 9 9 8 8 7 7 6 6 6 5 5 5 4 4 4 3 3 3 3 3 4 4 5 5 6 6 6 7 7
5 6 6 7 7 8 8 8 9 9 9 9 9 9 9 9 9 9 9 9 8 8 8 7 7 6 6 6 5 5 5 5 5 5 6 6 7 7 8 9 10 10 11 11 11 12 12 12 12 12 12 11 11 11 11 10 10 10 10 10 10 10 10 9 9 9 9 9 8 9 9 9 10 10 10 10 10 10 9 9 9 8 8 8 7 7 6 6 5 5 4 4 3 3 3 4 4 4 5 5 5 5 6
6 6 7 8 8 8 9 9 9 9 8 8 7 7 6 5 5 4 3 3 2 2 1 1 1 1 0 0 0 0 0 0 1 1 1 1 2 3 3 4 5 6 6 7 8 9 9 9 10 10 10 10 9 9 9 8 8 8 8 8 8 8 8 8 8 8 8 8 8 8 8 9 9 10 10 10 10 10 10 10 10 10 9 9 9 9 8 8 7 7 6 6 5 5 5 4 4 4 4 4 4 4 5
6 7 8 8 9 9 9 8 7 6 5 4 3 2 2 1 1 0 -0 -1 -1 -1 -1 -1 -1 -1 -1 -1 -1 -1 -1 -1 -1 -1 -1 -1 -0 0 1 1 2 2 3 3 4 4 5 5 6 6 6 6 6 6 6 6 6 6 6 6 6 6 6 7 7 7 7 7 7 7 7 8 8 8 8 9 9 9 8 8 8 8 9 9 9 9 9 9 9 8 8 7 7 7 6 6 5 5 5 4 4 4 4
7 7 8 8 8 8 7 6 5 3 2 1 1 0 -0 -0 -0 -0 -0 -1 -0 -0 0 0 0 1 1 1 1 1 0 0 -0 -0 -0 -0 -1 -1 -0 -0 0 1 1 2 2 2 2 3 3 3 3 4 4 4 4 4 4 4 4 4 5 5 5 5 5 6 6 6 6 5 5 5 5 6 6 6 6 6 6 6 6 7 7 7 8 8 9 9 9 9 9 8 8 7 7 7 6 6 6 5 5 5 4
7 7 8 8 7 6 4 3 2 1 -0 -0 -0 0 0 0 1 1 1 1 1 1 1 1 1 2 2 2 2 2 2 1 1 1 1 1 0 -0 -0 -0 -0 -0 0 1 1 2 2 2 3 3 3 3 3 3 3 4 4 4 4 4 4 4 4 4 4 4 4 4 4 4 4 4 4 4 4 4 4 4 5 5 5 5 6 6 6 7 7 8 8 8 8 8 8 7 7 7 7 7 6 6 6 5 5
7 7 7 6 5 3 2 0 -0 -1 -0 0 1 1 1 1 1 1 2 2 2 2 2 2 2 2 2 2 2 2 2 2 2 2 2 2 2 1 1 1 0 -0 -0 -0 1 1 2 2 3 3 3 3 4 4 4 5 5 5 5 5 5 5 5 5 4 4 4 4 4 4 4 5 5 5 5 4 4 4 4 4 4 5 5 5 5 6 6 6 7 7 7 7 7 7 7 7 7 6 6 6 6 6 5
7 6 6 4 3 1 -0 -1 -1 -0 1 1 2 2 2 2 2 2 2 3 3 3 2 2 2 2 2 2 3 3 4 4 4 4 4 4 4 4 4 3 3 2 2 1 1 1 1 1 2 3 3 3 4 4 5 5 6 6 7 7 7 7 6 6 6 5 5 5 5 5 6 6 6 6 6 5 5 5 5 5 4 4 4 4 5 5 5 5 6 6 7 7 7 7 7 7 6 6 6 6 6 6 5
6 5 4 3 1 0 -1 -0 0 1 2 2 2 3 3 3 3 3 2 3 3 2 2 2 2 3 3 4 5 6 7 7 7 8 8 9 9 9 9 8 7 7 6 5 4 3 2 2 2 2 2 3 3 4 4 5 6 7 7 7 7 7 7 7 7 7 7 7 7 7 7 7 7 7 7 7 7 6 6 5 5 5 5 5 5 5 5 5 6 6 6 7 7 7 7 7 7 7 7 7 7 6 6
5 4 3 2 1 1 0 1 2 2 3 3 3 3 3 3 2 2 2 2 2 2 2 2 3 4 5 7 7 8 8 8 9 10 12 13 13 14 14 14 13 13 12 11 10 8 7 5 4 3 3 3 3 3 4 5 5 6 7 7 6 6 6 6 7 7 7 8 8 9 9 9 9 9 9 8 8 8 7 7 7 6 6 6 6 6 6 6 6 7 7 7 7 7 7 7 7 7 7 7 7 7 7
4 4 3 2 1 1 1 2 3 3 3 3 3 2 2 2 2 2 2 2 2 2 2 2 3 5 6 7 7 7 7 8 10 11 13 15 17 18 19 19 19 19 18 17 16 14 13 11 9 7 6 5 4 4 4 5 5 5 5 5 5 5 5 5 6 6 7 8 9 9 10 11 11 11 11 10 10 9 9 8 8 8 8 8 7 7 7 7 7 8 8 8 8 8 8 8 8 7 7 7 7 8 8
3 3 2 2 1 1 2 2 3 3 2 2 2 2 1 2 2 2 2 2 2 2 2 2 3 5 6 6 6 6 7 8 10 12 14 16 18 20 21 23 24 24 24 23 21 20 18 15 13 11 9 7 6 6 6 5 5 5 5 4 4 4 4 5 5 5 6 7 7 8 9 11 11 12 12 12 11 11 10 10 10 9 9 9 9 8 8 8 8 9 9 9 9 10 10 9 9 9 8 9 10 11 11
3 2 2 2 2 2 2 2 2 2 2 1 1 1 1 1 2 2 2 2 2 2 2 2 3 4 5 5 5 6 7 8 10 12 14 16 18 20 22 23 24 25 26 25 24 23 21 18 16 14 12 10 9 8 8 7 7 6 5 5 5 5 5 5 5 5 5 5 5 6 7 8 9 10 11 11 11 11 11 11 10 10 10 10 9 9 8 8 8 9 9 9 10 10 9 9 9 9 9 10 10 10 10
3 2 2 2 2 2 2 2 2 2 2 1 1 1 1 1 1 2 2 2 2 2 2 2 3 3 4 4 5 6 7 8 10 12 14 16 17 18 19 20 21 22 23 23 23 22 21 19 17 15 13 12 11 11 10 9 8 7 7 7 6 6 6 6 5 5 4 4 4 4 4 5 6 7 8 8 9 9 9 9 9 10 10 10 10 9 8 8 8 8 9 9 9 9 9 9 9 10 10 10 9 8 7
4 3 2 2 2 2 2 2 2 2 2 1 1 1 1 1 1 2 2 2 2 2 2 2 3 3 4 5 5 6 7 8 9 11 13 14 15 15 14 15 15 16 17 18 19 19 18 17 16 14 13 13 12 12 11 10 9 8 8 7 7 6 6 5 5 4 3 3 3 3 3 3 4 4 5 5 6 6 7 7 7 8 8 9 9 9 9 8 8 8 8 8 8 8 8 9 9 10 11 10 10 9 9
4 4 3 2 2 2 2 2 3 3 3 2 2 1 1 1 1 2 2 2 3 3 3 3 3 4 5 5 5 5 6 7 8 9 10 11 11 10 9 9 9 10 11 12 13 14 14 14 13 13 12 12 11 10 10 9 8 8 7 7 7 6 6 5 4 4 3 3 3 3 3 3 3 4 4 4 5 5 6 6 6 6 6 7 8 8 9 9 8 7 7 7 7 7 8 8 9 9 9 9 9 9 10
4 4 3 3 3 3 3 3 3 3 3 3 3 2 2 2 2 2 2 3 3 3 3 3 3 4 5 5 5 5 5 6 7 7 8 7 7 6 5 5 5 6 6 7 8 9 10 10 10 10 9 9 8 8 7 7 7 7 7 6 6 6 6 5 5 5 5 5 4 4 4 4 4 4 4 5 5 6 7 7 6 6 6 6 7 7 8 8 8 7 7 7 7 7 7 8 8 8 8 8 9 9 9
3 3 3 3 3 3 4 4 4 4 4 4 3 3 2 2 2 2 3 3 3 3 3 3 4 5 5 5 5 4 5 6 6 6 5 4 4 3 3 3 3 3 4 4 5 6 6 7 7 7 7 6 6 5 5 5 6 6 6 6 6 6 6 6 6 6 6 6 6 6 6 6 6 6 6 6 6 7 7 7 7 7 7 7 7 7 7 8 7 7 7 7 7 7 7 7 7 7 7 8 8 8 8
3 3 3 3 3 4 4 4 5 5 5 5 4 3 3 3 2 2 3 3 3 3 3 3 4 5 5 5 4 4 4 5 6 6 4 3 2 1 1 1 2 2 2 3 3 4 4 5 5 5 4 4 4 4 4 4 5 5 5 5 5 5 5 5 5 6 6 6 6 6 7 7 7 7 7 8 8 8 8 8 8 8 8 8 8 8 8 8 7 7 7 7 7 7 7 7 7 7 7 7 7 7 7
3 3 3 3 4 4 4 4 5 5 6 5 5 4 3 3 3 3 3 3 3 3 3 4 5 5 5 5 4 4 4 5 6 6 5 3 1 0 -0 0 1 1 1 2 2 3 3 3 3 3 3 4 4 4 4 4 4 5 5 5 5 5 5 5 4 4 4 4 4 5 5 6 6 7 7 8 8 8 8 8 8 8 8 9 9 9 9 8 8 8 7 7 7 7 7 7 7 7 7 6 6 6 6
4 4 4 4 4 4 4 4 5 5 6 5 5 4 3 3 3 3 3 3 3 3 3 4 5 5 5 4 4 4 4 5 6 6 6 4 2 1 -0 -0 -0 0 1 1 1 2 2 2 2 3 3 3 3 3 4 4 4 4 4 5 5 5 5 4 4 4 3 3 3 3 4 4 5 5 6 6 7 7 8 8 8 8 8 8 9 9 9 9 9 8 8 7 7 7 6 7 7 7 7 7 6 6 6
5 5 5 5 5 5 5 5 5 5 5 5 4 4 3 3 3 3 3 3 3 3 3 4 5 5 5 4 4 4 4 5 6 7 7 6 5 3 1 0 0 0 1 1 1 1 1 1 2 2 2 2 3 3 3 4 4 4 4 4 4 5 5 5 4 4 4 4 3 3 4 4 4 4 5 5 5 6 6 7 7 7 7 7 8 9 9 9 9 9 9 8 8 7 7 7 7 7 7 7 7 6 6
6 6 6 6 5 6 5 5 5 5 5 5 4 4 4 4 4 4 4 3 3 3 4 4 5 5 5 4 4 4 4 5 6 7 7 8 7 5 3 2 1 1 1 1 1 1 1 1 2 2 2 2 2 2 3 3 3 3 4 4 4 5 5 5 5 5 5 5 5 5 5 5 5 5 5 5 6 6 6 7 7 7 7 7 7 8 8 9 9 10 10 10 9 9 8 8 7 7 7 7 7 7 6
6 6 6 6 6 6 6 6 6 6 6 5 5 4 4 4 4 4 4 3 3 3 4 4 5 5 4 4 4 4 5 6 6 7 8 8 8 7 6 4 3 3 3 2 3 3 2 2 2 2 2 2 2 2 2 3 3 3 4 4 5 5 6 6 6 7 7 7 8 8 8 8 8 7 7 7 7 8 8 8 8 8 8 8 8 8 8 9 9 10 11 11 11 10 10 9 9 8 8 8 8 7 7
7 7 7 7 7 7 7 7 7 7 7 6 5 4 4 4 4 4 4 3 3 3 4 4 4 4 4 4 4 5 5 6 7 8 9 9 9 9 8 7 6 5 4 4 4 4 3 3 2 2 2 2 2 2 2 3 3 4 4 5 5 6 7 7 8 9 9 10 10 10 10 10 10 10 10 10 10 10 10 9 9 9 9 8 8 8 8 8 9 9 9 10 10 10 10 10 10 10 9 9 9 8 8
8 7 7 7 7 7 7 7 7 7 7 6 5 5 4 4 4 4 4 3 3 4 4 4 4 4 4 4 4 5 6 7 8 9 10 10 10 10 9 8 7 7 6 6 5 4 3 3 2 2 2 1 2 2 3 3 3 4 5 5 6 7 8 8 9 10 11 11 11 12 12 12 12 12 12 12 11 11 11 11 10 10 9 9 8 8 8 8 8 8 8 8 8 8 9 9 9 9 9 9 9 9 8
8 8 7 7 8 8 8 8 8 7 7 6 5 5 4 4 4 4 4 4 4 4 4 4 4 4 4 4 4 5 6 8 9 10 11 11 10 10 10 9 9 8 7 6 5 4 3 2 1 1 1 2 2 3 3 3 4 4 5 6 6 7 8 9 9 10 11 11 12 12 13 13 13 13 13 13 13 12 12 11 10 10 9 9 9 8 8 8 7 7 6 6 6 6 6 7 7 7 7 7 7 7 7
9 8 8 7 8 8 8 8 8 7 6 6 5 5 4 4 4 4 4 4 4 4 4 4 4 4 4 4 4 5 7 8 10 11 11 11 10 10 9 9 8 7 6 5 4 3 2 1 1 1 2 2 3 3 3 4 4 5 5 5 6 7 7 8 9 10 10 11 12 12 13 13 13 14 14 14 14 14 13 12 11 10 10 9 9 8 8 7 7 6 6 5 5 5 5 5 5 5 5 5 5 5 6
9 9 8 8 8 8 8 8 8 7 6 6 5 5 4 4 4 4 4 3 3 3 3 3 4 4 3 4 4 5 7 9 10 11 12 11 10 9 8 8 7 6 4 3 2 2 1 2 2 2 3 3 3 3 4 4 5 5 5 6 6 7 7 8 9 9 10 10 11 12 12 13 13 13 14 14 14 14 14 13 12 11 11 10 9 8 8 7 7 6 5 5 5 4 4 4 4 5 5 5 5 5 5
9 9 8 8 8 8 8 7 7 6 6 5 5 4 4 4 3 3 3 3 3 3 3 3 3 3 3 3 4 5 7 9 11 12 12 11 10 8 7 6 4 3 3 2 2 2 2 2 3 3 3 4 4 4 5 5 5 5 6 6 7 7 7 8 9 9 9 10 10 11 11 11 11 11 12 12 12 12 12 12 12 11 11 10 10 9 8 8 7 6 6 5 5 5 4 4 4 4 4 5 5 5 5
9 9 9 9 9 8 8 7 6 6 5 5 4 4 4 4 4 3 3 3 3 3 3 4 3 3 3 3 4 5 7 9 11 12 12 10 8 7 5 4 3 2 2 2 2 2 3 3 3 4 4 4 5 5 5 6 6 6 6 7 7 8 8 9 9 9 9 10 10 10 9 9 9 9 9 8 8 8 8 8 8 8 9 9 8 8 8 8 7 7 7 6 6 5 5 5 5 4 4 5 5 5 5
8 8 9 9 9 9 7 7 6 5 5 4 4 4 3 3 3 3 3 3 3 3 4 4 3 3 3 3 4 6 8 10 12 13 12 9 7 5 4 3 2 2 2 2 3 3 3 4 4 5 5 5 6 6 6 6 6 6 7 7 8 8 9 9 10 10 10 9 9 9 8 8 7 7 6 6 6 6 5 5 5 5 5 5 5 6 6 6 6 6 6 6 6 6 5 5 5 5 5 5 5 5 5
8 8 8 9 9 8 7 7 6 5 5 4 4 4 3 3 3 3 3 3 3 4 4 3 3 3 3 3 5 7 9 11 12 12 11 8 6 4 3 2 2 3 3 3 3 4 4 5 5 6 6 6 6 6 6 6 6 7 7 8 9 9 10 10 10 10 10 9 8 8 7 7 6 6 5 5 5 5 4 4 4 4 4 4 4 4 4 4 4 4 5 5 5 5 5 5 5 5 4 4 4 4 4
7 7 8 9 9 8 7 6 6 5 5 4 4 4 4 4 4 4 3 3 4 4 4 3 3 3 3 4 6 8 11 12 13 12 9 7 5 4 3 3 3 3 3 4 4 5 5 6 6 7 7 6 6 6 6 6 7 7 8 9 9 10 10 10 10 10 9 8 8 7 6 6 5 5 5 5 4 4 4 4 4 4 4 4 4 4 4 4 4 4 4 4 4 4 4 4 4 4 4 4 4 4 4
7 7 8 8 8 8 7 6 5 5 5 4 4 4 4 4 4 4 3 4 4 4 4 3 3 3 3 4 6 9 11 12 12 10 8 6 4 3 3 3 3 3 4 4 5 5 6 6 7 7 6 6 5 5 5 6 7 8 9 9 10 10 10 9 9 9 8 7 7 6 6 5 5 5 4 4 4 4 4 4 4 4 4 4 4 4 4 4 4 4 4 4 4 4 4 4 4 4 4 4 4 4 4
7 7 7 7 7 7 7 6 6 5 5 5 4 4 4 4 4 4 3 4 4 4 4 3 3 3 3 5 7 9 11 12 11 9 7 5 4 3 3 3 4 4 4 5 6 6 6 7 6 6 5 5 5 5 6 7 7 8 9 9 9 9 9 9 8 8 7 7 6 5 5 5 5 4 4 4 4 4 4 4 4 4 4 4 4 4 4 4 4 4 4 4 4 4 4 4 4 4 4 4 4 4 4
7 7 7 7 6 6 6 6 5 5 5 5 4 4 4 4 4 4 4 4 4 4 3 3 3 4 5 5 7 9 11 11 10 9 7 5 4 4 4 4 4 5 5 6 6 6 6 6 5 5 4 4 5 5 6 7 8 9 9 9 9 8 8 8 7 7 6 6 5 5 5 5 4 4 4 4 4 4 4 4 4 4 4 4 4 3 3 3 3 3 3 3 3 4 4 4 4 4 4 5 5 5 5
6 6 6 6 6 6 6 6 5 5 5 5 5 4 4 4 4 4 4 4 4 4 3 3 3 4 5 6 7 9 11 11 10 8 7 5 5 4 4 4 5 5 6 7 7 7 6 5 5 4 4 4 5 6 7 8 8 9 9 9 8 8 7 7 7 6 6 5 5 5 5 5 4 4 4 4 4 4 4 4 4 4 4 4 4 4 4 3 3 3 3 4 4 4 4 4 4 4 5 5 5 5 6
6 6 6 6 6 6 5 5 5 5 5 5 5 5 5 4 4 4 4 4 4 3 3 3 3 4 6 6 7 9 11 11 9 8 6 5 4 4 4 4 5 6 6 7 7 6 6 5 5 4 4 5 5 6 7 8 9 9 9 8 8 7 7 7 6 6 6 5 5 5 5 4 4 4 4 4 4 4 4 4 4 4 4 4 4 4 4 4 4 4 4 4 4 4 4 5 5 5 5 5 5 6 6
6 6 5 6 6 6 5 5 5 5 5 5 5 5 5 5 4 4 4 4 3 3 3 3 3 4 5 6 7 9 12 11 9 7 6 5 4 4 4 5 5 6 6 7 6 6 5 5 5 5 5 5 6 7 8 8 9 9 8 8 7 7 6 6 6 6 5 5 5 5 5 4 4 4 4 4 4 4 4 4 4 4 4 5 5 5 5 5 5 5 5 5 5 5 5 6 6 6 6 6 6 6 7
6 5 5 6 6 5 5 5 5 5 6 6 6 5 5 5 5 4 4 3 3 3 3 4 4 3 3 5 7 10 11 10 8 6 5 4 4 4 4 5 5 6 6 6 6 6 5 5 5 5 5 5 6 7 8 8 9 8 8 7 7 6 6 6 6 6 5 5 5 5 5 4 4 4 4 4 4 4 4 4 5 5 5 5 5 5 6 6 6 6 6 6 6 6 7 7 7 7 7 7 8 8 8
5 5 5 5 5 5 5 5 5 5 6 6 6 6 5 5 5 4 4 3 3 3 4 4 4 3 3 5 7 10 11 10 8 6 4 4 4 4 4 4 5 5 6 6 6 6 5 5 5 5 5 6 7 7 8 8 8 8 7 7 6 6 6 6 6 6 5 5 5 5 5 4 4 4 4 4 4 4 4 5 5 5 5 5 6 6 6 6 6 6 6 6 7 7 7 7 8 8 9 9 9 9 9
5 5 5 5 5 5 5 5 5 6 6 6 6 6 6 5 5 4 3 3 2 3 4 5 4 3 2 4 7 9 10 9 8 6 5 4 4 4 4 4 5 5 6 6 6 6 5 5 5 5 5 6 7 7 8 8 8 8 7 7 6 6 6 6 6 6 6 5 5 5 4 4 4 4 4 4 4 4 5 5 5 5 6 6 6 6 6 6 6 6 6 7 7 7 8 8 8 9 9 9 9 9 9
5 5 5 5 5 5 5 5 5 6 6 6 6 6 6 5 5 4 3 3 2 3 4 5 4 3 2 4 6 8 9 8 7 6 5 4 4 4 4 4 5 5 6 6 6 5 5 5 5 5 5 6 7 7 8 8 8 7 7 6 6 6 6 5 6 6 6 5 5 5 4 4 4 4 4 4 4 5 5 5 6 6 6 6 6 6 6 6 6 6 6 7 7 8 8 9 9 9 9 9 9 9 9
4 4 5 5 5 5 5 6 6 6 6 6 6 6 6 5 5 4 3 3 3 3 3 4 4 4 3 4 5 7 8 8 7 7 5 5 4 4 4 5 5 5 6 6 6 6 5 5 5 5 6 6 7 7 8 8 8 7 7 6 5 5 5 5 6 6 6 5 5 5 5 5 4 4 5 5 5 5 5 5 6 6 6 6 6 6 6 6 7 7 7 7 8 8 9 9 9 10 10 9 9 9 8
4 4 4 5 5 5 6 6 6 6 6 6 6 5 5 5 4 3 3 2 2 3 3 3 3 3 4 5 5 6 7 7 7 6 6 5 5 4 4 5 5 6 7 7 6 6 5 5 5 5 6 6 7 8 8 8 7 7 6 5 5 5 5 5 5 6 6 6 6 6 5 5 5 5 5 5 5 5 5 5 5 5 6 6 6 6 6 7 7 7 7 8 8 9 9 9 10 10 10 9 9 8 8
3 3 4 4 5 5 6 7 7 7 6 6 5 5 4 4 4 3 2 2 2 2 3 3 3 3 4 5 5 5 6 7 7 6 5 5 5 5 5 5 5 6 6 7 7 6 5 6 5 5 6 6 7 7 8 8 7 7 6 5 5 5 5 5 5 6 6 6 6 6 6 6 5 5 5 5 5 5 5 5 5 5 5 6 6 6 6 7 7 7 8 8 8 9 9 9 9 9 9 9 8 8 7
3 3 3 3 4 5 6 7 7 7 7 6 5 5 4 4 3 3 3 2 2 2 3 3 3 3 3 5 5 6 6 7 7 6 6 5 5 5 6 6 6 5 5 6 6 6 5 5 5 5 6 6 7 7 8 8 7 7 6 5 4 4 5 5 6 6 6 6 6 6 6 5 5 5 5 5 5 5 5 5 5 5 5 6 6 6 6 7 7 7 8 8 8 9 9 9 9 8 8 8 7 7 7
3 2 2 3 3 4 6 7 7 7 7 7 6 5 5 4 3 3 3 3 3 2 2 4 4 4 2 3 5 5 6 7 7 7 6 6 6 5 5 4 5 6 6 6 6 7 6 5 5 5 6 6 7 8 8 8 8 6 5 5 4 4 5 5 6 6 6 6 5 5 5 5 5 5 5 5 5 5 5 5 5 5 6 6 6 7 7 7 8 8 8 8 9 9 9 8 8 8 7 7 6 6 6
2 1 1 2 3 4 5 7 7 7 7 7 7 7 6 4 3 3 2 2 3 3 2 3 4 5 3 2 3 5 6 7 7 7 5 5 5 5 4 4 5 7 7 7 7 7 7 7 7 7 7 7 8 9 9 8 7 6 5 4 4 4 5 5 5 5 5 5 5 4 4 4 4 4 4 4 5 5 5 5 5 6 6 6 7 7 8 8 8 8 9 9 9 9 8 8 7 7 6 6 5 5 5
2 1 1 1 2 3 5 6 7 7 7 7 7 7 7 5 3 2 2 2 3 3 3 3 3 3 4 2 3 4 6 6 7 7 6 5 4 4 5 7 8 7 5 4 4 5 9 9 8 8 9 8 8 8 8 7 7 5 4 4 4 4 5 5 5 5 5 4 4 4 4 4 4 4 4 4 5 5 5 5 6 6 7 7 7 7 8 8 8 8 9 9 8 8 8 7 7 6 6 5 5 5 5
3 1 1 1 1 3 4 5 5 6 6 6 7 8 8 6 4 2 2 3 3 4 4 4 3 2 3 3 3 3 5 6 6 6 6 5 4 3 5 9 8 6 6 6 4 3 7 9 8 6 7 9 8 7 7 7 6 5 4 4 4 4 4 4 4 4 4 4 4 4 4 4 4 4 4 4 5 5 5 6 6 7 7 7 7 8 8 8 8 8 8 8 7 7 7 7 6 6 5 5 5 5 5
3 2 1 1 1 2 3 4 4 5 5 6 7 8 9 7 5 3 2 3 4 4 4 5 4 3 2 3 3 3 4 4 5 5 4 5 6 6 3 3 4 6 8 11 11 8 4 7 7 6 5 8 9 8 7 7 5 4 4 4 4 4 4 4 4 4 4 4 4 4 4 4 4 4 4 5 5 5 6 6 7 7 7 7 7 8 7 7 7 7 7 7 7 6 6 6 6 6 6 6 6 6 6
4 3 2 2 1 2 2 3 3 4 4 5 6 7 8 7 6 4 3 4 4 4 4 5 4 3 2 2 3 4 3 4 4 4 4 4 5 7 6 5 5 5 5 8 10 9 6 5 5 6 7 9 9 9 7 7 6 4 4 4 4 4 4 4 4 4 4 4 4 4 4 4 4 4 5 5 6 6 6 7 7 7 7 7 7 7 7 7 7 6 6 6 6 6 6 6 7 7 7 7 7 7 8
5 4 3 3 3 3 3 3 4 4 4 4 4 5 6 6 5 5 4 4 4 5 4 4 4 4 3 2 3 4 4 4 4 4 4 3 4 5 9 10 9 8 6 4 4 5 7 7 8 7 5 9 11 10 7 6 5 5 4 4 4 4 4 4 4 4 4 4 4 4 5 5 5 5 5 6 6 7 7 7 7 7 7 7 7 7 6 6 6 6 6 6 6 7 7 7 8 8 8 9 9 9 9
5 5 4 4 4 4 5 5 5 5 5 4 4 4 4 4 5 4 4 4 4 4 4 4 4 4 4 4 3 4 4 5 4 4 4 4 4 6 8 10 11 10 11 8 7 6 4 7 9 9 4 7 9 10 7 6 5 5 5 4 4 4 4 4 4 4 4 4 5 5 5 6 6 6 7 7 7 7 7 7 7 7 7 6 6 6 6 6 6 6 6 7 7 8 8 8 9 9 9 9 10 10 10
6 6 5 5 5 5 6 6 6 6 6 5 4 4 4 4 4 4 4 4 4 4 4 5 5 5 4 4 4 5 5 5 5 4 3 5 7 8 9 9 9 9 10 10 11 10 7 7 7 7 7 6 7 7 9 7 5 4 4 4 4 4 4 4 4 4 4 5 5 5 6 7 7 8 8 8 8 8 7 7 7 6 6 6 6 6 6 6 7 7 8 8 9 9 9 10 10 10 10 10 10 10 10
7 7 6 6 6 6 6 6 6 6 6 5 5 4 4 4 4 4 4 4 4 4 5 5 5 5 5 5 5 5 5 5 5 5 4 5 7 9 10 9 9 9 9 9 10 10 11 8 7 6 7 7 5 4 6 6 5 5 4 4 4 4 4 4 5 5 5 6 6 7 7 7 8 8 8 8 8 8 7 6 6 6 6 6 6 7 7 8 8 9 9 10 10 11 11 11 11 11 11 11 10 10 10
7 7 6 6 6 6 6 6 6 6 5 5 5 5 5 5 5 5 4 5 5 5 5 6 6 6 6 6 5 5 5 5 5 5 7 7 7 7 9 9 9 9 9 10 9 9 9 8 7 7 6 6 5 4 4 4 4 5 5 4 4 4 5 5 6 6 7 7 8 8 8 8 8 8 8 8 7 7 6 6 6 6 6 6 7 8 9 9 10 11 11 11 12 12 12 11 11 11 11 11 10 10 10
Height
5847 5847 5847 5847 5847 5847 5847 5847 5847 5847 5847 5847 5847 5847 5847 5847 5847 5847 5847 5847 5846 5846 5846 5846 5845 5845 5845 5844 5844 5844 5843 5843 5842 5842 5842 5841 5841 5841 5840 5840 5840 5839 5839 5839 5839 5838 5838 5838 5838 5837 5837 5837 5837 5836 5836 5836 5835 5835 5835 5834 5834 5834 5833 5833 5832 5832 5832 5832 5832 5831 5831 5831 5830 5830 5830 5829 5829 5829 5828 5828 5828 5827 5827 5827 5827 5827 5827 5827 5826 5826 5826 5826 5826 5826 5826 5826 5826 5826 5826 5825 5825 5825 5825
5846 5846 5846 5846 5846 5846 5846 5846 5846 5846 5846 5846 5846 5846 5846 5846 5846 5846 5846 5846 5845 5845 5845 5845 5844 5844 5844 5843 5843 5843 5842 5842 5842 5841 5841 5840 5840 5839 5839 5838 5838 5838 5837 5837 5837 5837 5837 5836 5836 5836 5836 5835 5835 5835 5834 5834 5833 5833 5833 5832 5832 5832 5832 5831 5831 5830 5830 5830 5830 5830 5829 5829 5829 5828 5828 5828 5827 5827 5827 5826 5826 5826 5825 5825 5825 5825 5825 5825 5825 5824 5824 5824 5824 5824 5824 5824 5824 5824 5824 5824 5824 5824 5824
5845 5845 5845 5845 5845 5845 5845 5845 5845 5845 5845 5845 5845 5845 5845 5845 5845 5845 5845 5844 5844 5844 5844 5843 5843 5843 5842 5842 5842 5842 5841 5841 5840 5840 5839 5839 5838 5838 5837 5837 5837 5837 5836 5836 5836 5835 5835 5835 5835 5834 5834 5834 5833 5833 5832 5832 5832 5832 5831 5831 5831 5830 5830 5829 5829 5829 5828 5828 5828 5828 5827 5827 5827 5827 5826 5826 5826 5825 5825 5824 5824 5824 5823 5823 5823 5823 5823 5823 5822 5822 5822 5822 5822 5822 5822 5822 5822 5822 5822 5822 5822 5822 5822
5844 5844 5844 5844 5843 5843 5843 5843 5843 5844 5844 5844 5844 5844 5844 5844 5844 5844 5844 5843 5843 5843 5843 5842 5842 5842 5842 5841 5841 5840 5840 5840 5839 5839 5838 5838 5837 5837 5837 5836 5836 5835 5835 5835 5834 5834 5834 5833 5833 5833 5833 5832 5832 5832 5831 5831 5831 5830 5830 5829 5829 5828 5828 5827 5827 5827 5827 5827 5826 5826 5826 5825 5825 5825 5825 5824 5824 5823 5823 5823 5822 5822 5822 5821 5821 5821 5821 5821 5821 5821 5820 5821 5820 5820 5820 5820 5820 5820 5820 5820 5820 5820 5820
5842 5842 5842 5842 5842 5842 5842 5842 5842 5843 5843 5843 5843 5843 5843 5843 5843 5843 5842 5842 5842 5842 5842 5842 5841 5841 5840 5840 5840 5839 5839 5838 5838 5837 5837 5837 5836 5836 5835 5835 5835 5834 5834 5833 5833 5833 5833 5832 5832 5832 5831 5831 5831 5830 5830 5829 5829 5829 5828 5828 5827 5827 5826 5826 5826 5825 5825 5825 5825 5824 5824 5823 5823 5823 5823 5822 5822 5822 5821 5821 5820 5820 5820 5820 5819 5819 5819 5819 5819 5819 5818 5818 5818 5818 5818 5818 5818 5818 5818 5818 5818 5818 5818
5842 5842 5842 5842 5842 5842 5842 5842 5842 5842 5842 5842 5842 5842 5842 5842 5842 5842 5842 5841 5841 5841 5841 5840 5840 5840 5839 5839 5838 5838 5838 5837 5837 5836 5836 5836 5835 5835 5834 5834 5833 5833 5832 5832 5832 5832 5831 5831 5831 5830 5830 5830 5829 5829 5828 5828 5827 5827 5827 5827 5826 5825 5825 5824 5824 5824 5823 5823 5823 5823 5822 5822 5822 5821 5821 5821 5820 5820 5819 5819 5818 5818 5818 5818 5817 5817 5817 5817 5817 5817 5817 5817 5817 5816 5816 5816 5816 5817 5817 5816 5816 5816 5816
5840 5840 5840 5840 5841 5841 5841 5841 5841 5841 5841 5841 5841 5841 5841 5841 5841 5841 5840 5840 5840 5840 5839 5839 5839 5838 5838 5838 5837 5837 5837 5836 5836 5835 5835 5834 5834 5833 5833 5832 5832 5832 5831 5831 5830 5830 5830 5830 5829 5829 5828 5828 5828 5827 5827 5827 5826 5826 5825 5825 5824 5824 5823 5822 5822 5822 5822 5822 5821 5821 5820 5820 5820 5819 5819 5819 5818 5818 5817 5817 5816 5816 5816 5816 5815 5815 5815 5815 5815 5815 5815 5815 5814 5814 5814 5814 5814 5814 5814 5814 5814 5814 5814
5839 5839 5839 5840 5840 5840 5840 5840 5840 5840 5840 5840 5840 5840 5840 5840 5840 5839 5839 5839 5839 5838 5838 5838 5838 5837 5837 5837 5836 5836 5835 5835 5834 5834 5833 5832 5832 5832 5831 5831 5830 5830 5830 5829 5829 5828 5828 5828 5828 5827 5827 5827 5826 5826 5825 5825 5824 5824 5824 5823 5822 5822 5822 5821 5821 5820 5820 5820 5819 5819 5819 5818 5818 5817 5817 5817 5816 5816 5815 5815 5814 5814 5814 5813 5813 5813 5813 5813 5813 5813 5813 5812 5812 5812 5812 5812 5812 5812 5812 5812 5812 5812 5812
5838 5838 5838 5839 5839 5839 5839 5839 5839 5839 5839 5839 5839 5839 5839 5838 5838 5838 5838 5837 5837 5837 5837 5837 5836 5836 5836 5835 5835 5834 5833 5833 5832 5832 5832 5831 5831 5830 5830 5829 5829 5828 5828 5827 5827 5827 5826 5826 5826 5826 5825 5825 5824 5824 5824 5823 5823 5822 5822 5821 5821 5820 5820 5819 5819 5819 5818 5818 5817 5817 5817 5817 5816 5816 5815 5814 5814 5814 5813 5813 5812 5812 5812 5812 5811 5811 5811 5811 5811 5811 5811 5811 5810 5810 5810 5810 5810 5809 5809 5809 5809 5810 5810
5837 5837 5837 5838 5838 5838 5838 5838 5838 5838 5838 5838 5838 5837 5837 5837 5837 5837 5837 5836 5836 5836 5835 5835 5835 5834 5834 5833 5833 5832 5832 5832 5831 5830 5830 5829 5829 5828 5828 5827 5827 5826 5826 5826 5825 5825 5824 5824 5824 5824 5823 5823 5823 5822 5822 5822 5821 5821 5820 5820 5819 5819 5818 5818 5817 5817 5817 5816 5816 5816 5815 5815 5814 5814 5813 5812 5812 5812 5811 5811 5810 5810 5810 5810 5809 5809 5809 5809 5809 5809 5808 5808 5808 5807 5807 5807 5807 5807 5807 5807 5807 5807 5807
5837 5837 5837 5837 5837 5837 5837 5837 5837 5837 5837 5837 5837 5836 5836 5836 5836 5835 5835 5835 5834 5834 5834 5833 5833 5833 5832 5832 5832 5831 5830 5830 5829 5828 5828 5827 5827 5826 5825 5825 5824 5824 5824 5823 5823 5822 5822 5822 5822 5822 5822 5821 5821 5820 5820 5820 5819 5819 5818 5818 5817 5817 5817 5816 5816 5815 5815 5815 5814 5814 5813 5813 5812 5812 5811 5811 5810 5809 5809 5808 5808 5808 5808 5808 5808 5807 5807 5807 5807 5807 5806 5806 5806 5806 5805 5805 5805 5805 5805 5805 5805 5805 5805
5835 5835 5836 5836 5836 5836 5836 5836 5836 5836 5835 5835 5835 5835 5835 5834 5834 5834 5834 5833 5833 5832 5832 5832 5832 5831 5831 5830 5830 5829 5829 5828 5827 5827 5826 5825 5824 5824 5823 5822 5822 5822 5821 5821 5821 5820 5820 5820 5820 5820 5820 5819 5819 5819 5818 5818 5817 5817 5817 5816 5816 5815 5815 5814 5814 5813 5813 5813 5812 5812 5812 5811 5811 5810 5809 5809 5808 5807 5807 5806 5806 5806 5806 5806 5805 5805 5805 5805 5804 5804 5804 5804 5803 5803 5803 5803 5803 5802 5802 5802 5802 5802 5802
5834 5834 5834 5835 5835 5834 5834 5834 5834 5834 5834 5834 5834 5834 5833 5833 5833 5832 5832 5832 5831 5831 5830 5830 5830 5830 5829 5829 5828 5828 5827 5826 5826 5825 5824 5823 5822 5822 5821 5820 5819 5819 5818 5818 5818 5818 5818 5818 5818 5818 5817 5817 5817 5817 5817 5816 5816 5816 5815 5815 5814 5814 5813 5813 5812 5812 5812 5811 5811 5810 5810 5809 5809 5808 5807 5807 5806 5806 5805 5804 5804 5804 5803 5803 5803 5803 5803 5802 5802 5802 5802 5801 5801 5801 5800 5800 5800 5800 5800 5800 5800 5800 5800
5833 5833 5833 5833 5833 5833 5833 5833 5833 5833 5833 5833 5832 5832 5832 5832 5831 5831 5831 5830 5830 5829 5829 5829 5828 5828 5828 5827 5827 5826 5826 5825 5824 5823 5822 5821 5820 5819 5818 5818 5817 5817 5816 5816 5816 5816 5816 5816 5816 5816 5816 5815 5815 5815 5815 5814 5814 5814 5813 5813 5812 5812 5812 5811 5811 5810 5810 5809 5809 5808 5808 5807 5807 5806 5806 5805 5804 5804 5803 5802 5802 5802 5802 5802 5801 5801 5801 5800 5800 5800 5799 5799 5798 5798 5798 5798 5798 5798 5798 5798 5798 5798 5798
5832 5832 5832 5832 5832 5832 5832 5832 5832 5832 5832 5832 5831 5831 5831 5830 5830 5829 5829 5829 5828 5828 5827 5827 5827 5827 5826 5826 5825 5825 5824 5823 5822 5822 5821 5820 5819 5818 5817 5816 5815 5815 5814 5814 5814 5813 5813 5813 5813 5813 5813 5813 5813 5813 5812 5812 5812 5812 5812 5811 5811 5810 5810 5809 5809 5808 5808 5807 5807 5807 5806 5806 5805 5804 5804 5803 5802 5802 5801 5801 5800 5800 5800 5800 5799 5799 5799 5798 5798 5797 5797 5797 5796 5796 5795 5795 5795 5795 5796 5797 5797 5797 5797
5830 5831 5831 5831 5831 5831 5831 5831 5831 5830 5830 5830 5830 5829 5829 5829 5828 5828 5827 5827 5827 5826 5826 5826 5825 5825 5825 5824 5824 5823 5822 5822 5821 5820 5819 5818 5817 5816 5815 5814 5814 5813 5812 5812 5812 5812 5812 5812 5812 5812 5811 5811 5811 5811 5811 5811 5810 5810 5809 5809 5809 5808 5808 5807 5807 5806 5806 5805 5805 5805 5804 5804 5803 5802 5802 5802 5801 5800 5799 5799 5798 5798 5797 5797 5797 5797 5797 5796 5796 5795 5795 5794 5794 5793 5793 5793 5793 5793 5794 5793 5793 5793 5793
5829 5829 5829 5829 5829 5829 5829 5829 5829 5829 5829 5828 5828 5828 5827 5827 5827 5827 5826 5826 5825 5825 5824 5824 5824 5823 5823 5822 5822 5822 5821 5820 5820 5819 5818 5817 5816 5815 5814 5813 5812 5812 5811 5811 5810 5810 5810 5810 5810 5810 5809 5809 5809 5809 5809 5809 5808 5808 5807 5807 5807 5807 5806 5805 5805 5804 5804 5803 5803 5802 5802 5802 5801 5801 5800 5800 5799 5798 5797 5797 5796 5796 5796 5795 5795 5795 5795 5794 5794 5793 5792 5792 5792 5791 5791 5791 5791 5791 5791 5791 5790 5790 5790
5828 5828 5828 5828 5828 5828 5828 5828 5827 5827 5827 5827 5827 5826 5826 5826 5825 5825 5825 5824 5824 5823 5823 5822 5822 5822 5822 5821 5821 5820 5820 5819 5818 5817 5817 5816 5815 5814 5813 5812 5811 5811 5810 5810 5809 5809 5808 5808 5808 5808 5808 5808 5807 5807 5807 5807 5807 5806 5806 5805 5805 5805 5804 5803 5803 5802 5802 5802 5801 5801 5800 5800 5799 5799 5798 5797 5797 5796 5796 5795 5794 5794 5793 5793 5793 5793 5793 5792 5792 5791 5790 5790 5789 5789 5789 5789 5789 5789 5789 5788 5788 5788 5787
5826 5826 5826 5826 5826 5826 5826 5826 5826 5826 5826 5825 5825 5825 5824 5824 5824 5823 5823 5822 5822 5822 5821 5821 5821 5820 5820 5819 5819 5819 5818 5817 5817 5816 5815 5815 5814 5813 5812 5811 5810 5810 5809 5808 5808 5807 5807 5807 5807 5807 5806 5806 5806 5806 5805 5805 5805 5804 5804 5803 5803 5802 5802 5802 5801 5801 5800 5799 5799 5798 5798 5797 5797 5797 5796 5796 5795 5794 5794 5793 5792 5792 5791 5791 5791 5791 5791 5790 5790 5789 5788 5787 5787 5787 5787 5787 5787 5787 5787 5786 5786 5785 5785
5825 5825 5825 5825 5825 5825 5824 5824 5824 5824 5824 5824 5823 5823 5823 5822 5822 5822 5822 5821 5821 5820 5820 5819 5819 5819 5818 5818 5818 5817 5817 5816 5815 5815 5814 5813 5812 5812 5811 5810 5809 5808 5808 5807 5807 5807 5806 5806 5805 5805 5805 5805 5804 5804 5804 5803 5803 5802 5802 5802 5801 5801 5800 5800 5799 5798 5798 5797 5797 5796 5796 5795 5795 5794 5794 5793 5793 5792 5792 5791 5790 5789 5789 5789 5789 5789 5788 5788 5787 5787 5786 5785 5785 5785 5785 5785 5785 5784 5784 5784 5783 5783 5783
5823 5823 5823 5823 5823 5823 5823 5823 5822 5822 5822 5822 5822 5822 5821 5821 5821 5820 5820 5819 5819 5818 5818 5818 5817 5817 5817 5817 5816 5816 5815 5814 5814 5813 5812 5812 5811 5810 5810 5809 5808 5807 5807 5806 5806 5805 5805 5804 5804 5804 5803 5803 5803 5802 5802 5802 5801 5801 5800 5800 5799 5799 5798 5798 5797 5797 5796 5796 5795 5794 5794 5793 5792 5792 5792 5791 5791 5790 5790 5789 5788 5787 5787 5787 5787 5786 5786 5786 5785 5784 5784 5783 5783 5782 5782 5782 5782 5782 5782 5782 5782 5781 5781
5822 5822 5822 5821 5821 5821 5821 5821 5821 5821 5821 5820 5820 5820 5820 5819 5819 5818 5818 5818 5817 5817 5817 5816 5816 5816 5815 5815 5814 5814 5813 5813 5812 5812 5811 5810 5810 5809 5808 5807 5807 5806 5806 5805 5804 5804 5803 5803 5802 5802 5802 5802 5801 5801 5801 5800 5799 5799 5798 5798 5797 5797 5796 5796 5795 5795 5794 5794 5793 5792 5792 5791 5790 5790 5789 5789 5789 5788 5787 5787 5786 5786 5785 5785 5784 5784 5784 5783 5782 5782 5782 5781 5781 5780 5780 5780 5780 5780 5779 5779 5779 5779 5779
5820 5820 5820 5820 5819 5819 5819 5819 5819 5819 5819 5819 5819 5818 5818 5818 5817 5817 5816 5816 5816 5815 5815 5815 5814 5814 5814 5813 5813 5812 5812 5811 5810 5810 5809 5809 5808 5807 5807 5806 5805 5805 5804 5803 5803 5802 5802 5801 5801 5801 5800 5800 5800 5799 5799 5798 5797 5797 5796 5796 5795 5795 5794 5794 5793 5793 5792 5792 5791 5790 5789 5789 5788 5788 5787 5787 5787 5786 5785 5785 5784 5783 5783 5783 5782 5782 5782 5781 5780 5780 5779 5779 5778 5778 5778 5777 5777 5777 5777 5777 5777 5777 5776
5818 5818 5818 5818 5817 5817 5817 5817 5817 5817 5817 5817 5817 5817 5816 5816 5815 5815 5815 5814 5814 5814 5813 5813 5813 5812 5812 5812 5811 5811 5810 5809 5809 5808 5807 5807 5806 5806 5805 5804 5804 5803 5802 5802 5801 5801 5800 5800 5799 5799 5799 5798 5798 5797 5797 5796 5795 5795 5794 5793 5793 5792 5792 5791 5791 5790 5790 5789 5789 5788 5787 5787 5786 5785 5785 5785 5784 5784 5783 5782 5782 5781 5781 5781 5780 5780 5779 5779 5778 5777 5777 5777 5776 5776 5776 5775 5775 5775 5775 5774 5774 5774 5774
5816 5816 5816 5816 5816 5816 5816 5816 5816 5816 5816 5816 5815 5815 5814 5814 5813 5813 5813 5812 5812 5812 5812 5812 5811 5811 5810 5810 5809 5808 5808 5807 5807 5806 5806 5805 5805 5804 5803 5803 5802 5802 5801 5800 5800 5799 5798 5798 5797 5797 5797 5797 5796 5796 5795 5794 5793 5792 5792 5791 5791 5790 5789 5789 5788 5788 5787 5787 5786 5786 5785 5784 5783 5783 5782 5782 5782 5781 5781 5780 5779 5779 5778 5778 5778 5777 5777 5777 5776 5775 5775 5774 5774 5774 5773 5773 5773 5772 5772 5772 5772 5772 5771
5814 5814 5814 5814 5814 5814 5814 5814 5814 5814 5814 5814 5813 5813 5812 5812 5812 5812 5811 5811 5811 5810 5810 5810 5809 5809 5808 5808 5807 5807 5806 5805 5805 5804 5804 5803 5803 5802 5802 5801 5800 5800 5799 5798 5798 5797 5797 5796 5796 5795 5795 5795 5794 5793 5793 5792 5791 5790 5789 5789 5788 5787 5787 5786 5786 5785 5785 5784 5783 5783 5782 5781 5781 5780 5780 5779 5779 5779 5778 5777 5777 5776 5776 5776 5775 5775 5774 5774 5773 5773 5772 5772 5772 5771 5771 5771 5770 5770 5770 5770 5769 5769 5768
5812 5812 5812 5812 5812 5812 5812 5812 5812 5812 5812 5812 5811 5811 5810 5810 5810 5810 5809 5809 5809 5808 5808 5808 5807 5807 5807 5806 5805 5805 5804 5803 5803 5802 5802 5801 5801 5800 5800 5799 5798 5798 5797 5797 5796 5795 5795 5794 5794 5793 5793 5792 5792 5792 5791 5790 5789 5788 5787 5786 5786 5785 5784 5784 5783 5782 5782 5781 5781 5780 5779 5779 5778 5777 5777 5777 5776 5776 5775 5775 5774 5773 5773 5773 5772 5772 5772 5771 5771 5770 5770 5769 5769 5768 5768 5768 5767 5767 5767 5767 5767 5766 5766
5811 5810 5810 5810 5810 5810 5810 5810 5810 5810 5810 5810 5809 5809 5808 5808 5808 5807 5807 5807 5807 5807 5806 5806 5805 5805 5804 5804 5803 5803 5802 5802 5801 5800 5800 5799 5799 5798 5798 5797 5797 5796 5795 5795 5794 5793 5793 5792 5792 5792 5791 5790 5790 5789 5788 5787 5787 5786 5785 5784 5783 5782 5782 5781 5780 5780 5779 5779 5778 5777 5777 5776 5775 5775 5774 5774 5774 5773 5772 5772 5771 5771 5771 5770 5770 5769 5769 5768 5768 5768 5767 5767 5766 5766 5765 5765 5765 5765 5764 5764 5764 5763 5763
5809 5808 5808 5808 5808 5808 5808 5808 5808 5808 5808 5807 5807 5807 5807 5806 5806 5806 5806 5805 5805 5805 5804 5804 5803 5803 5802 5802 5801 5801 5800 5799 5799 5798 5798 5797 5797 5796 5796 5795 5795 5794 5793 5793 5792 5792 5791 5791 5790 5789 5789 5788 5787 5787 5786 5785 5784 5783 5782 5782 5781 5780 5779 5778 5778 5777 5777 5776 5775 5775 5774 5773 5772 5772 5771 5771 5771 5770 5770 5769 5769 5768 5768 5767 5767 5767 5766 5766 5765 5765 5765 5764 5764 5763 5762 5762 5762 5762 5761 5761 5761 5761 5760
5807 5807 5806 5806 5806 5806 5806 5806 5806 5806 5806 5805 5805 5805 5804 5804 5804 5804 5803 5803 5803 5802 5802 5802 5801 5801 5800 5800 5799 5799 5798 5797 5797 5796 5796 5795 5795 5794 5793 5793 5792 5792 5791 5791 5790 5790 5789 5788 5788 5787 5787 5786 5785 5785 5784 5783 5782 5781 5780 5779 5779 5778 5777 5776 5776 5775 5774 5773 5773 5772 5772 5771 5770 5769 5768 5768 5768 5767 5767 5767 5766 5765 5765 5765 5764 5764 5763 5763 5762 5762 5762 5762 5761 5761 5760 5760 5759 5759 5758 5758 5758 5757 5757
5805 5804 5804 5804 5804 5804 5804 5804 5804 5804 5803 5803 5803 5802 5802 5802 5802 5802 5801 5801 5801 5800 5800 5800 5799 5799 5798 5798 5797 5797 5796 5795 5795 5794 5794 5793 5792 5792 5792 5791 5790 5790 5789 5789 5788 5787 5787 5786 5786 5785 5784 5784 5783 5782 5782 5781 5780 5779 5778 5777 5777 5776 5775 5774 5773 5772 5772 5771 5770 5770 5769 5768 5767 5767 5766 5766 5765 5765 5764 5764 5763 5763 5762 5762 5762 5761 5761 5760 5760 5759 5759 5759 5758 5758 5757 5757 5757 5756 5756 5755 5755 5754 5754
5803 5802 5802 5802 5802 5802 5802 5802 5802 5802 5801 5801 5801 5801 5800 5800 5800 5800 5799 5799 5799 5798 5798 5797 5797 5797 5796 5796 5795 5794 5794 5793 5792 5792 5792 5791 5791 5790 5789 5789 5788 5788 5787 5787 5786 5785 5785 5784 5783 5783 5782 5782 5781 5780 5779 5779 5778 5777 5776 5775 5774 5773 5772 5772 5771 5770 5769 5768 5768 5767 5767 5766 5765 5764 5764 5763 5762 5762 5762 5761 5761 5760 5760 5759 5759 5758 5758 5757 5757 5757 5756 5756 5755 5755 5755 5754 5754 5753 5753 5752 5752 5751 5751
5801 5800 5800 5800 5801 5801 5801 5800 5800 5799 5799 5799 5799 5798 5798 5798 5798 5797 5797 5797 5797 5796 5796 5795 5795 5794 5794 5793 5793 5792 5791 5791 5790 5790 5789 5789 5788 5788 5787 5787 5786 5786 5785 5784 5784 5783 5782 5782 5781 5781 5780 5779 5778 5778 5777 5776 5776 5774 5773 5772 5772 5771 5770 5769 5768 5767 5767 5766 5765 5765 5764 5763 5762 5762 5761 5761 5760 5759 5759 5758 5758 5757 5757 5757 5756 5756 5755 5755 5754 5754 5753 5753 5752 5752 5752 5752 5751 5751 5750 5750 5749 5749 5748
5799 5798 5798 5799 5799 5799 5798 5798 5797 5797 5797 5797 5797 5797 5796 5796 5796 5795 5795 5795 5794 5794 5793 5793 5792 5792 5792 5791 5790 5790 5789 5788 5788 5788 5787 5787 5787 5786 5785 5785 5784 5783 5783 5782 5782 5781 5780 5779 5779 5778 5777 5777 5776 5775 5775 5774 5773 5772 5771 5770 5769 5768 5767 5767 5766 5765 5764 5763 5763 5762 5761 5761 5760 5759 5758 5758 5757 5757 5756 5756 5755 5755 5754 5754 5753 5753 5752 5752 5751 5751 5750 5750 5749 5749 5749 5748 5748 5748 5747 5747 5747 5746 5745
5797 5797 5797 5797 5797 5797 5796 5796 5796 5795 5795 5795 5795 5795 5794 5794 5794 5793 5793 5792 5792 5792 5791 5791 5790 5790 5789 5789 5788 5787 5787 5786 5786 5785 5785 5785 5784 5784 5783 5782 5782 5781 5780 5780 5779 5778 5778 5777 5777 5776 5775 5774 5773 5773 5772 5771 5770 5769 5768 5767 5767 5766 5765 5764 5763 5762 5762 5761 5760 5759 5759 5758 5757 5757 5756 5755 5755 5754 5754 5753 5752 5752 5752 5751 5751 5750 5749 5749 5748 5748 5747 5747 5746 5746 5745 5745 5745 5745 5744 5744 5743 5743 5742
5795 5795 5795 5795 5795 5795 5794 5794 5793 5793 5793 5793 5793 5792 5792 5792 5792 5791 5791 5791 5790 5790 5789 5789 5788 5787 5787 5787 5786 5785 5784 5784 5783 5783 5783 5782 5782 5782 5781 5780 5779 5779 5778 5777 5777 5776 5775 5775 5774 5773 5772 5772 5771 5770 5769 5768 5768 5767 5766 5765 5764 5763 5762 5762 5761 5760 5759 5758 5758 5757 5756 5756 5755 5754 5754 5753 5752 5752 5751 5751 5750 5749 5749 5748 5748 5747 5747 5746 5746 5745 5744 5744 5743 5742 5742 5742 5741 5741 5741 5741 5740 5740 5739
5793 5793 5793 5793 5793 5793 5792 5792 5792 5792 5791 5791 5791 5791 5790 5790 5790 5789 5789 5788 5788 5787 5787 5787 5786 5785 5785 5784 5783 5783 5782 5782 5781 5781 5780 5780 5780 5779 5778 5778 5777 5777 5776 5775 5774 5774 5773 5772 5772 5771 5770 5769 5768 5767 5767 5766 5765 5764 5763 5762 5762 5761 5760 5759 5758 5757 5757 5756 5755 5754 5754 5753 5752 5752 5751 5751 5750 5749 5748 5748 5747 5747 5746 5746 5745 5744 5744 5743 5742 5742 5741 5741 5740 5739 5739 5738 5738 5737 5737 5737 5736 5736 5735
5792 5792 5792 5792 5791 5791 5790 5790 5790 5790 5789 5789 5789 5788 5788 5788 5787 5787 5787 5786 5786 5785 5785 5784 5784 5783 5782 5782 5781 5781 5780 5779 5779 5778 5778 5778 5777 5777 5776 5776 5775 5774 5773 5773 5772 5771 5771 5770 5769 5768 5767 5767 5766 5765 5764 5763 5762 5762 5761 5760 5759 5758 5757 5757 5756 5755 5754 5753 5752 5752 5751 5751 5750 5749 5749 5748 5747 5747 5746 5745 5744 5744 5743 5742 5742 5741 5741 5740 5739 5739 5738 5737 5737 5736 5735 5735 5734 5734 5733 5733 5732 5732 5732
5790 5790 5790 5789 5789 5789 5788 5788 5788 5787 5787 5787 5787 5786 5786 5786 5785 5785 5785 5784 5783 5783 5783 5782 5782 5781 5780 5780 5779 5778 5777 5777 5777 5776 5776 5775 5775 5774 5774 5773 5772 5772 5771 5770 5770 5769 5768 5767 5767 5766 5765 5764 5763 5762 5762 5761 5760 5759 5758 5757 5757 5756 5755 5754 5753 5752 5751 5750 5750 5749 5748 5748 5747 5747 5746 5745 5745 5744 5743 5742 5742 5741 5740 5739 5739 5738 5737 5737 5736 5735 5735 5734 5733 5732 5732 5731 5731 5730 5730 5729 5729 5728 5727
5788 5788 5788 5787 5787 5787 5787 5786 5786 5786 5785 5785 5785 5784 5784 5784 5783 5783 5782 5782 5782 5781 5781 5780 5779 5779 5778 5777 5777 5776 5775 5775 5774 5773 5773 5772 5772 5772 5771 5771 5770 5769 5768 5768 5767 5766 5766 5765 5764 5763 5762 5762 5761 5760 5759 5758 5757 5757 5756 5755 5754 5753 5752 5751 5750 5749 5749 5748 5747 5746 5746 5745 5744 5744 5743 5742 5742 5741 5740 5739 5738 5738 5737 5736 5736 5735 5734 5733 5733 5732 5731 5730 5730 5729 5728 5727 5727 5726 5726 5725 5725 5724 5723
5787 5786 5786 5786 5785 5785 5785 5784 5784 5784 5783 5783 5783 5782 5782 5782 5781 5781 5781 5780 5779 5779 5778 5777 5777 5777 5776 5775 5775 5774 5773 5772 5772 5771 5771 5770 5770 5769 5769 5768 5767 5767 5766 5765 5764 5764 5763 5762 5762 5761 5760 5759 5758 5757 5757 5756 5755 5754 5753 5752 5751 5750 5750 5749 5748 5747 5746 5745 5744 5744 5743 5742 5742 5741 5740 5739 5738 5738 5737 5736 5735 5734 5734 5733 5732 5732 5731 5730 5729 5728 5727 5727 5726 5725 5724 5723 5723 5722 5722 5721 5720 5720 5719
5785 5784 5784 5784 5783 5783 5783 5782 5782 5782 5781 5781 5781 5780 5780 5780 5779 5779 5778 5778 5777 5777 5776 5775 5775 5774 5774 5773 5772 5772 5771 5770 5769 5769 5768 5767 5767 5767 5766 5766 5765 5764 5763 5762 5762 5761 5760 5760 5759 5758 5757 5757 5756 5755 5754 5753 5752 5751 5750 5750 5749 5748 5747 5746 5745 5744 5743 5742 5742 5741 5740 5739 5738 5737 5737 5736 5735 5734 5734 5733 5732 5731 5730 5730 5729 5728 5727 5726 5725 5724 5724 5723 5722 5721 5720 5719 5719 5718 5717 5717 5716 5716 5715
5783 5782 5782 5782 5782 5781 5781 5781 5780 5780 5779 5779 5779 5778 5778 5778 5777 5777 5777 5776 5775 5775 5774 5773 5772 5772 5771 5771 5770 5769 5768 5768 5767 5766 5766 5765 5764 5764 5763 5763 5762 5762 5761 5760 5759 5758 5757 5757 5756 5755 5755 5754 5753 5752 5751 5750 5749 5748 5748 5747 5746 5745 5744 5743 5742 5741 5740 5740 5739 5738 5737 5736 5735 5734 5734 5733 5732 5731 5730 5729 5728 5728 5727 5726 5725 5724 5723 5722 5722 5721 5720 5719 5718 5717 5716 5715 5714 5714 5713 5712 5712 5711 5711
5781 5781 5780 5780 5780 5779 5779 5779 5778 5778 5777 5777 5777 5777 5776 5776 5775 5775 5774 5774 5773 5772 5772 5771 5770 5770 5769 5768 5767 5767 5766 5765 5765 5764 5763 5762 5762 5761 5761 5760 5760 5759 5758 5757 5757 5756 5755 5754 5753 5752 5752 5751 5750 5749 5748 5747 5747 5746 5745 5744 5743 5742 5741 5740 5739 5738 5737 5737 5736 5735 5734 5733 5732 5731 5730 5729 5728 5728 5727 5726 5725 5724 5723 5722 5721 5720 5719 5718 5717 5717 5715 5715 5714 5713 5712 5711 5710 5709 5709 5708 5707 5707 5706
5779 5779 5778 5778 5778 5777 5777 5777 5776 5776 5775 5775 5775 5775 5774 5774 5773 5773 5772 5772 5771 5771 5770 5769 5768 5767 5767 5766 5765 5764 5764 5763 5762 5761 5761 5760 5759 5759 5758 5758 5757 5756 5756 5755 5754 5753 5752 5751 5751 5750 5749 5748 5747 5747 5746 5745 5744 5743 5742 5741 5740 5739 5738 5737 5737 5736 5735 5734 5733 5732 5731 5730 5729 5728 5727 5726 5725 5724 5723 5722 5721 5720 5719 5718 5717 5716 5715 5714 5713 5712 5711 5710 5709 5708 5707 5707 5706 5705 5704 5703 5703 5702 5702
5777 5777 5777 5776 5776 5775 5775 5775 5774 5774 5773 5773 5773 5772 5772 5772 5771 5771 5770 5770 5769 5768 5768 5767 5766 5765 5764 5763 5763 5762 5761 5760 5759 5759 5758 5757 5757 5756 5756 5755 5754 5754 5753 5752 5752 5751 5750 5749 5748 5747 5746 5745 5744 5743 5742 5742 5741 5740 5739 5738 5737 5736 5735 5734 5733 5732 5732 5731 5730 5729 5728 5727 5726 5725 5724 5723 5722 5721 5720 5719 5717 5717 5715 5714 5713 5712 5711 5710 5709 5708 5707 5706 5705 5704 5703 5702 5701 5701 5700 5699 5698 5697 5697
5775 5775 5774 5774 5774 5773 5773 5772 5772 5772 5771 5771 5771 5771 5770 5770 5769 5768 5768 5767 5767 5766 5766 5765 5764 5763 5762 5761 5761 5760 5759 5758 5757 5756 5756 5755 5754 5754 5753 5752 5752 5751 5750 5749 5749 5748 5747 5746 5745 5744 5743 5742 5742 5741 5740 5739 5738 5737 5736 5735 5734 5733 5732 5731 5730 5729 5728 5727 5727 5726 5725 5723 5722 5722 5721 5720 5718 5717 5716 5715 5714 5713 5712 5710 5709 5708 5707 5706 5705 5704 5703 5702 5701 5700 5699 5698 5697 5696 5695 5694 5693 5693 5692
5773 5773 5772 5772 5772 5771 5771 5770 5770 5770 5769 5769 5769 5768 5768 5767 5767 5766 5766 5765 5765 5764 5763 5763 5762 5761 5761 5759 5758 5757 5757 5756 5755 5754 5753 5752 5752 5751 5750 5749 5749 5748 5747 5747 5746 5745 5744 5743 5742 5742 5741 5739 5738 5737 5737 5736 5735 5734 5733 5732 5731 5730 5729 5728 5727 5726 5725 5724 5723 5722 5721 5720 5719 5718 5717 5716 5715 5714 5713 5712 5710 5709 5708 5707 5705 5704 5703 5702 5701 5700 5699 5697 5697 5696 5694 5693 5692 5692 5691 5690 5689 5688 5687
5771 5771 5770 5770 5769 5769 5769 5768 5768 5767 5767 5767 5767 5766 5766 5765 5764 5764 5763 5763 5762 5762 5761 5760 5760 5759 5758 5757 5757 5756 5754 5753 5752 5752 5751 5750 5749 5748 5747 5747 5746 5745 5745 5744 5743 5742 5741 5740 5739 5738 5737 5737 5736 5735 5733 5732 5732 5731 5730 5729 5728 5727 5726 5725 5723 5722 5722 5720 5719 5718 5717 5716 5715 5713 5712 5712 5711 5710 5709 5707 5707 5705 5704 5702 5701 5700 5699 5697 5696 5695 5694 5693 5692 5691 5690 5689 5688 5687 5686 5685 5684 5683 5682
5769 5769 5768 5768 5767 5767 5767 5766 5766 5765 5765 5765 5764 5764 5763 5762 5762 5762 5761 5760 5760 5759 5759 5758 5757 5757 5756 5755 5754 5753 5752 5751 5750 5749 5748 5747 5746 5745 5744 5743 5743 5742 5742 5742 5740 5739 5738 5737 5737 5735 5734 5733 5732 5732 5731 5730 5728 5727 5727 5725 5724 5723 5722 5721 5720 5718 5717 5716 5715 5713 5712 5711 5710 5709 5708 5707 5706 5705 5704 5703 5702 5701 5700 5698 5697 5696 5695 5693 5692 5691 5690 5689 5688 5687 5686 5685 5684 5682 5682 5680 5679 5678 5677
5767 5767 5766 5766 5765 5765 5765 5764 5764 5763 5763 5762 5762 5762 5761 5760 5760 5759 5759 5758 5757 5757 5757 5756 5755 5754 5754 5753 5752 5751 5750 5749 5748 5747 5746 5745 5744 5742 5741 5740 5739 5739 5739 5738 5738 5737 5736 5735 5733 5732 5731 5731 5729 5728 5727 5726 5725 5724 5723 5722 5721 5719 5718 5717 5716 5714 5713 5712 5710 5709 5707 5706 5705 5704 5703 5702 5701 5700 5699 5698 5697 5696 5695 5694 5692 5691 5690 5689 5687 5686 5685 5684 5683 5682 5681 5680 5679 5678 5677 5676 5675 5674 5673
5765 5764 5764 5763 5763 5763 5762 5762 5762 5761 5761 5760 5760 5759 5758 5758 5757 5757 5756 5756 5755 5754 5754 5753 5753 5752 5751 5750 5749 5748 5747 5746 5745 5744 5743 5742 5741 5740 5739 5737 5737 5736 5735 5734 5734 5733 5733 5732 5730 5729 5728 5727 5726 5725 5724 5723 5722 5721 5719 5718 5717 5716 5714 5713 5712 5710 5709 5707 5706 5704 5703 5702 5700 5699 5698 5697 5696 5694 5693 5692 5692 5691 5690 5688 5687 5686 5685 5684 5682 5681 5680 5679 5678 5677 5676 5675 5674 5673 5672 5671 5670 5669 5667
5762 5762 5762 5761 5761 5761 5760 5760 5760 5759 5759 5758 5757 5757 5756 5756 5755 5754 5754 5753 5752 5752 5751 5751 5750 5749 5749 5748 5747 5746 5745 5744 5743 5742 5741 5740 5739 5738 5737 5736 5734 5733 5732 5731 5730 5730 5730 5728 5727 5725 5724 5723 5722 5721 5720 5719 5718 5717 5716 5715 5713 5712 5710 5709 5707 5706 5705 5703 5702 5700 5699 5697 5696 5694 5693 5691 5690 5689 5687 5687 5686 5685 5684 5683 5682 5681 5679 5678 5677 5676 5675 5674 5673 5672 5671 5670 5669 5668 5667 5666 5664 5663 5662
5760 5759 5759 5759 5759 5758 5758 5758 5757 5757 5757 5756 5755 5755 5754 5753 5752 5752 5751 5751 5750 5749 5748 5747 5747 5747 5746 5745 5745 5744 5742 5742 5740 5739 5738 5737 5736 5735 5734 5734 5732 5731 5730 5729 5727 5726 5726 5726 5724 5722 5721 5720 5719 5717 5716 5715 5714 5713 5712 5711 5709 5708 5707 5705 5704 5702 5701 5700 5698 5697 5695 5693 5691 5690 5688 5687 5685 5684 5682 5681 5680 5679 5677 5677 5676 5674 5673 5672 5671 5670 5669 5668 5667 5666 5665 5664 5663 5662 5661 5660 5659 5657 5657
5757 5757 5757 5757 5757 5756 5756 5755 5755 5755 5754 5753 5753 5752 5752 5751 5750 5749 5749 5748 5747 5747 5746 5745 5744 5744 5743 5742 5742 5741 5740 5739 5738 5737 5736 5734 5734 5733 5732 5731 5730 5729 5728 5727 5726 5724 5723 5723 5722 5720 5719 5718 5717 5715 5713 5712 5711 5709 5708 5707 5706 5704 5703 5702 5700 5699 5697 5696 5694 5693 5691 5689 5687 5686 5684 5682 5681 5679 5677 5676 5674 5673 5672 5671 5670 5668 5667 5666 5665 5664 5663 5662 5661 5660 5659 5658 5657 5656 5655 5654 5653 5652 5650
5755 5755 5755 5754 5754 5754 5753 5753 5752 5752 5752 5751 5750 5750 5749 5748 5747 5747 5746 5746 5745 5744 5743 5742 5741 5741 5740 5739 5739 5738 5738 5737 5736 5734 5733 5732 5731 5730 5729 5728 5727 5727 5726 5724 5723 5722 5721 5720 5719 5718 5716 5717 5715 5714 5712 5711 5709 5707 5706 5704 5703 5701 5699 5698 5697 5695 5694 5692 5690 5689 5687 5685 5684 5682 5680 5679 5677 5675 5673 5672 5670 5668 5667 5666 5664 5663 5662 5661 5660 5658 5657 5656 5655 5654 5653 5652 5651 5650 5649 5648 5647 5645 5644
5753 5752 5752 5752 5752 5751 5751 5751 5750 5750 5749 5749 5748 5747 5747 5746 5745 5744 5743 5743 5742 5741 5740 5739 5738 5738 5737 5736 5736 5735 5734 5734 5733 5732 5731 5729 5728 5727 5727 5726 5724 5723 5722 5722 5721 5720 5718 5718 5717 5716 5714 5714 5713 5712 5710 5709 5708 5706 5705 5703 5701 5700 5697 5696 5694 5692 5691 5689 5687 5685 5683 5682 5680 5678 5677 5675 5673 5671 5669 5667 5666 5664 5662 5661 5660 5658 5657 5656 5654 5653 5652 5651 5649 5648 5647 5646 5645 5644 5642 5641 5640 5639 5638
5751 5750 5750 5750 5749 5749 5748 5748 5748 5747 5747 5746 5746 5745 5744 5743 5742 5742 5741 5740 5739 5738 5737 5737 5736 5735 5734 5733 5732 5732 5731 5730 5730 5729 5728 5727 5725 5725 5724 5722 5722 5720 5719 5718 5717 5716 5715 5715 5714 5713 5712 5711 5710 5709 5708 5706 5705 5704 5702 5701 5700 5698 5696 5694 5692 5691 5689 5687 5684 5682 5680 5678 5676 5675 5673 5671 5670 5668 5666 5664 5662 5660 5658 5657 5655 5654 5652 5651 5649 5648 5647 5645 5644 5643 5642 5640 5639 5638 5637 5635 5634 5633 5632
5748 5748 5748 5747 5747 5746 5746 5746 5745 5745 5744 5744 5743 5742 5742 5741 5740 5739 5738 5737 5737 5736 5735 5734 5733 5732 5731 5730 5730 5729 5728 5727 5726 5726 5725 5724 5722 5722 5721 5719 5718 5717 5716 5715 5714 5713 5712 5711 5710 5710 5710 5708 5707 5706 5705 5703 5702 5700 5699 5698 5697 5695 5694 5692 5690 5689 5687 5685 5682 5680 5678 5675 5673 5671 5669 5667 5666 5664 5662 5660 5658 5656 5654 5652 5651 5649 5648 5646 5645 5643 5642 5640 5639 5637 5636 5635 5633 5632 5631 5630 5628 5627 5626
5746 5746 5745 5745 5744 5744 5743 5743 5743 5742 5742 5741 5741 5740 5739 5738 5737 5737 5736 5735 5734 5733 5732 5731 5730 5729 5728 5727 5727 5726 5725 5724 5723 5722 5721 5720 5719 5718 5717 5716 5715 5714 5713 5712 5711 5710 5709 5707 5706 5705 5705 5704 5704 5703 5702 5700 5698 5697 5695 5694 5692 5691 5690 5688 5687 5685 5683 5682 5680 5678 5675 5673 5670 5668 5666 5664 5662 5660 5658 5656 5654 5652 5650 5648 5647 5645 5643 5642 5640 5638 5637 5635 5634 5632 5631 5629 5628 5627 5625 5624 5623 5621 5620
5743 5743 5743 5742 5742 5742 5741 5741 5740 5740 5739 5739 5738 5737 5737 5736 5735 5734 5733 5732 5731 5730 5729 5728 5727 5726 5725 5725 5724 5723 5722 5721 5720 5719 5718 5717 5716 5715 5714 5713 5712 5711 5710 5709 5707 5707 5705 5704 5703 5702 5701 5700 5699 5699 5698 5697 5695 5693 5691 5690 5688 5687 5685 5683 5682 5680 5679 5677 5675 5674 5672 5669 5667 5665 5663 5660 5658 5656 5654 5652 5650 5648 5646 5644 5642 5640 5638 5637 5635 5633 5632 5630 5628 5627 5626 5624 5622 5621 5620 5618 5617 5616 5614